STARLINK-30044 (55703 NORAD) Tracking and Keplerian Element Data

This shows tracking and keplerian element data for the satellite.

Feedback or suggestion? Click here.




ElementValue
Catalog55703
NameSTARLINK-30044
Epoch Orbit130
Epoch Day84.91667824
Epoch Year2023
RAAN128.4188
Inclination43.0006
Eccentricity0.0001717
Argument of Perigee19.7933
Mean Anonmoly230.1251
Mean Motion15.66228014
Decay Rate0.00135098
L11 55703U 23026J 23084.91667824 .00135098 00000+0 12561-2 0 9995
L22 55703 43.0006 128.4188 0001717 19.7933 230.1251 15.66228014 1308



Live tracking and technical data element details for STARLINK-30044 (NORAD 55703). STARLINK-30044 can be tracked NOW for your location showing map with azimuth and elevation plus other details from your city location.







IsCatalogInMostPopularTable: catalog: 55703, numindb: 3
Update: records affected: 1



GetName: 55703 STARLINK-30044

Hit Count: updated at: Tue, 28 Mar 2023 01:54:15 GMT